Flag for Israel Weather past 2 weeks in Rishon LeZion, Israel

Now
70 °F

Passing clouds.


Feels Like: 70 °F
Forecast: 59 / 74 °F
Wind: 13 mph from Northwest

Location: Ben Gurion International Airport


UV Index: 7 (High)

Visibility: N/A


Pressure: 29.92 "Hg

Humidity: 73%

Dew point: 61 °F

Location of Rishon LeZionLocation

Historic Weather in Rishon LeZion

°F

Rishon LeZion temperature yesterday

Maximum temperature yesterday: 91 °F (at 11:50 AM)
Minimum temperature yesterday: 73 °F (at 6:20 AM)
Average temperature yesterday: 83 °F

Past Weeks' High & Low Weather Summary

 TemperatureHumidityPressure
High93 °F (Apr 18, 5:20 PM)88% (Apr 8, 3:20 AM)30.09 "Hg (Apr 8, 3:20 AM)
Low52 °F (Apr 11, 6:20 AM)20% (Apr 6, 11:50 AM)29.80 "Hg (Apr 16, 2:50 AM)
Average70 °F56%29.94 "Hg
* Reported Apr 5 6:20 PM — Apr 20 6:20 PM, Rishon LeZion, Weather by CustomWeather, © 2014

Note: Actual official high and low records may vary slightly from our data, if they occured in-between our weather recording intervals... More about our weather records

Advertising

Historic Weather Conditions — Data for Previous 24 hours

 ConditionsComfort  
Time TempWeatherWind HumidityBarometerVisibility
6:20 PM
Apr 20
72 °FPassing clouds.10 mph69%29.92 "HgN/A
5:50 PM72 °FPassing clouds.13 mph69%29.89 "HgN/A
5:20 PM73 °FSunny.13 mph65%29.89 "Hg10 mi
4:50 PM75 °FSunny.12 mph61%29.89 "Hg10 mi
4:20 PM77 °FSunny.14 mph57%29.89 "Hg10 mi
3:50 PM77 °FSunny.13 mph57%29.89 "Hg10 mi
3:20 PM77 °FSunny.14 mph57%29.89 "Hg10 mi
2:50 PM77 °FSunny.16 mph61%29.89 "Hg10 mi
2:20 PM77 °FSunny.14 mph61%29.89 "Hg10 mi
1:50 PM77 °FSunny.13 mph61%29.89 "Hg10 mi
1:20 PM77 °FSunny.12 mph61%29.92 "Hg10 mi
12:50 PM79 °FSunny.9 mph58%29.92 "Hg10 mi
12:20 PM77 °FSunny.8 mph65%29.92 "Hg10 mi
11:50 AM73 °FSunny.9 mph69%29.92 "Hg10 mi
11:20 AM77 °FSunny.7 mph61%29.92 "Hg10 mi
10:50 AM75 °FPassing clouds.8 mph69%29.92 "HgN/A
10:20 AM73 °FSunny.10 mph69%29.89 "Hg10 mi
9:50 AM73 °FPassing clouds.7 mph69%29.89 "HgN/A
9:20 AM73 °FPassing clouds.9 mph69%29.89 "HgN/A
8:50 AM73 °FPassing clouds.5 mph65%29.89 "HgN/A
8:20 AM72 °FPassing clouds.6 mph73%29.89 "HgN/A
7:50 AM72 °FPassing clouds.9 mph73%29.89 "HgN/A
7:20 AM70 °FPassing clouds.9 mph78%29.86 "HgN/A
6:50 AM70 °FClear.5 mph69%29.86 "Hg10 mi
6:20 AM72 °FPassing clouds.2 mph61%29.83 "HgN/A
5:50 AM72 °FClear.5 mph61%29.83 "Hg10 mi
5:20 AM73 °FClear.6 mph57%29.83 "Hg10 mi
4:50 AM72 °FClear.5 mph57%29.83 "Hg10 mi
4:20 AM72 °FClear.3 mph57%29.83 "Hg10 mi
3:50 AM70 °FClear.6 mph60%29.83 "Hg10 mi
3:20 AM72 °FClear.1 mph57%29.83 "Hg10 mi
2:50 AM72 °FClear.3 mph53%29.86 "Hg10 mi
2:20 AM73 °FClear.5 mph50%29.86 "Hg10 mi
1:50 AM73 °FClear.6 mph50%29.86 "Hg10 mi
1:20 AM73 °FPassing clouds.5 mph53%29.89 "HgN/A
12:50 AM73 °FClear.5 mph57%29.89 "Hg10 mi
12:20 AM73 °FClear.2 mph61%29.92 "Hg10 mi
11:50 PM
Apr 19
73 °FClear.5 mph61%29.92 "Hg10 mi
11:20 PM75 °FClear.8 mph54%29.92 "Hg10 mi
10:50 PM77 °FClear.6 mph44%29.95 "Hg10 mi
10:20 PM79 °FClear.8 mph42%29.95 "Hg10 mi
9:50 PM81 °FClear.9 mph39%29.92 "Hg10 mi
9:20 PM82 °FClear.15 mph35%29.95 "Hg10 mi
8:50 PM88 °FClear.8 mph24%29.89 "Hg10 mi
8:20 PM88 °FClear.14 mph24%29.89 "Hg10 mi
7:50 PM88 °FSunny.15 mph24%29.89 "Hg10 mi
7:20 PM84 °FSunny.7 mph25%29.92 "Hg10 mi
Weather by CustomWeather, © 2014

See weather overview